Wind_Speed
52 53 53 53 55 56 57 58 59 58 56 55 56 56 57 57 58 59 58 58 57 56 56 57 57 57 57 56 56 54 54 54 55 56 57 58 58 58
53 53 53 54 56 57 58 59 60 60 59 56 55 55 55 56 57 57 56 54 53 53 54 54 54 53 53 53 53 52 53 52 53 53 53 54 55 55
53 53 54 55 55 56 57 58 58 59 59 56 54 53 54 54 54 54 52 52 51 51 51 51 50 49 49 49 50 50 51 51 51 51 51 51 51 52
52 53 54 55 55 56 56 57 57 57 57 54 52 52 52 52 51 50 50 49 49 49 49 48 47 47 46 45 46 47 48 48 48 48 48 48 48 48
52 53 53 54 54 54 55 55 55 55 54 53 51 51 50 50 49 48 47 46 46 47 45 45 45 44 43 43 42 42 43 43 44 44 43 43 44 44
51 51 52 52 52 52 53 53 53 52 52 51 50 49 49 48 48 46 44 43 43 43 42 42 41 40 39 37 37 37 37 38 39 39 39 39 40 40
50 50 50 50 50 51 51 50 50 50 49 49 47 46 45 44 44 43 41 40 39 39 38 37 35 33 32 32 31 30 30 30 31 31 33 34 34 34
48 48 48 48 48 48 48 48 48 48 47 46 45 44 43 42 41 40 39 37 36 35 34 31 29 29 28 27 26 25 25 24 24 25 27 28 28 29
46 46 47 47 47 47 47 47 47 47 46 44 43 42 40 39 39 37 36 35 33 31 29 28 27 26 24 22 20 20 20 20 20 21 22 24 24 25
45 46 46 47 47 46 46 45 44 42 42 42 41 39 38 37 37 36 34 32 29 27 27 26 25 23 20 18 17 17 17 17 17 18 19 21 23 24
44 45 45 46 46 45 44 42 40 40 40 39 38 37 36 35 34 33 30 27 26 26 26 25 22 19 16 15 14 13 13 13 14 15 18 19 21 23
43 44 45 45 44 42 41 39 39 38 37 35 34 33 33 31 30 28 26 25 24 24 23 21 19 16 15 14 14 12 12 13 14 15 16 17 18 20
42 43 43 42 40 39 38 37 37 36 34 32 31 29 28 27 26 25 24 23 23 22 20 18 16 15 14 12 10 10 11 11 12 14 15 16 16 18
40 40 39 38 37 36 35 35 34 32 30 29 27 25 24 23 23 22 21 21 21 20 17 16 14 12 11 10 8 8 9 9 10 12 13 14 14 15
37 37 36 35 33 33 32 31 30 28 26 24 22 21 21 21 21 19 19 19 18 16 14 12 11 10 10 9 7 6 7 9 10 11 12 12 12 13
36 35 34 32 31 31 29 28 26 24 22 21 20 19 19 19 18 17 16 15 14 12 11 10 10 9 9 7 6 6 6 7 9 10 9 10 10 10
33 32 31 30 30 28 26 24 23 22 20 19 18 17 17 17 16 15 13 12 12 10 9 9 8 8 6 4 4 5 5 6 6 7 7 7 8 9
31 29 29 28 26 24 23 22 20 19 18 17 17 16 16 16 15 13 11 11 10 9 8 7 6 6 4 2 2 4 5 6 7 7 7 6 7 7
28 27 26 25 24 22 20 19 18 17 17 17 16 15 15 14 12 10 9 9 9 8 7 6 5 4 1 1 4 5 6 6 7 8 7 6 6 6
26 25 24 23 22 20 18 17 17 16 16 16 15 15 14 13 11 8 7 7 7 7 6 5 3 2 1 3 5 6 7 7 8 8 7 6 5 6
22 21 21 20 19 18 16 16 15 15 15 14 14 14 13 11 9 8 7 6 5 5 5 3 2 3 4 5 6 6 7 7 7 7 7 6 6 6
19 18 18 17 16 15 15 14 14 14 13 13 13 12 10 9 7 6 6 5 5 4 2 2 3 4 5 5 5 5 6 7 8 8 8 7 8 10
17 16 15 15 14 14 13 13 12 11 11 11 11 9 8 7 5 4 4 4 2 1 1 2 3 4 4 5 5 5 6 8 8 9 10 11 13 13
Wind_Direction
291 292 292 293 294 295 296 296 296 296 296 296 295 294 293 292 292 292 292 291 290 289 289 288 285 282 277 274 271 269 267 266 264 263 261 259 258 256
292 292 293 293 294 295 296 297 298 298 298 298 296 295 294 294 294 294 293 292 291 291 290 290 287 283 279 275 271 268 267 265 264 262 261 259 256 254
292 292 293 294 295 296 297 298 299 299 299 299 297 296 296 296 296 295 294 294 293 292 292 291 288 285 282 278 272 270 268 266 264 263 260 258 255 254
292 293 294 295 296 296 297 298 299 300 300 299 298 297 297 297 297 296 295 295 294 293 293 291 289 287 284 280 275 272 269 266 265 263 260 257 255 253
293 294 295 295 296 297 297 298 299 300 300 300 299 299 298 298 297 296 296 295 294 294 294 293 291 289 287 282 278 275 271 267 264 262 258 255 253 251
294 294 296 296 297 297 298 299 300 300 300 300 301 300 300 300 299 297 297 296 296 296 296 295 293 291 289 284 279 276 272 268 264 259 254 252 250 248
294 295 296 297 298 299 299 299 300 301 301 301 302 302 302 301 300 299 298 296 297 298 296 296 295 294 290 286 281 276 272 267 261 255 250 248 246 245
294 295 296 298 299 300 300 301 301 302 302 302 302 303 303 302 302 302 300 299 298 297 297 297 298 298 295 290 283 276 271 266 257 251 244 241 241 240
295 295 296 298 299 300 301 301 302 302 303 303 303 304 303 303 303 303 302 302 302 301 299 299 300 299 297 292 282 275 271 265 255 246 240 236 236 234
295 296 297 298 299 299 300 302 303 303 303 303 304 304 304 303 304 304 302 303 303 303 304 304 302 300 297 290 284 277 267 257 252 242 236 236 234 234
296 297 298 299 300 300 301 302 302 302 303 303 303 304 305 304 304 305 304 303 304 306 305 304 303 298 293 289 285 273 257 249 244 238 234 234 233 233
296 298 299 300 300 300 300 301 302 303 302 301 303 305 306 305 305 306 306 306 307 308 308 306 303 299 294 291 282 266 251 246 240 234 231 232 232 228
296 298 299 300 300 300 300 301 302 302 302 302 304 306 307 308 308 309 310 310 311 311 310 309 304 299 295 288 280 264 247 238 232 228 226 229 231 230
297 299 299 299 299 299 300 301 302 302 303 304 305 307 309 311 313 314 315 315 315 314 312 311 304 297 295 289 280 265 245 232 229 226 224 224 227 227
297 298 299 299 299 300 300 301 301 302 304 305 307 309 311 313 315 316 317 317 318 319 320 320 312 300 292 287 279 261 238 227 224 224 223 221 221 224
297 297 297 298 299 300 301 301 301 302 304 305 308 310 313 315 316 317 320 323 327 327 326 324 318 307 295 282 269 250 231 221 215 210 210 211 212 213
295 295 296 298 300 300 300 300 300 300 303 306 307 310 314 317 318 317 322 327 331 331 330 329 324 318 307 284 263 240 218 202 188 182 185 191 196 199
293 294 296 299 299 299 299 299 299 299 301 304 307 310 315 319 319 318 321 327 332 336 340 340 333 324 311 261 211 192 186 179 173 173 178 179 181 186
291 292 295 297 298 298 298 297 298 299 300 303 307 311 316 320 321 320 320 323 329 336 341 342 341 341 348 147 151 157 160 163 165 166 169 173 175 177
290 290 292 294 296 296 297 298 298 299 300 302 305 310 316 321 323 323 322 323 330 337 342 347 358 19 105 131 140 143 146 148 153 155 158 162 163 166
289 289 290 293 294 295 297 298 298 298 299 300 302 307 313 318 319 321 323 324 330 337 345 358 35 72 104 122 133 139 141 144 144 142 147 154 154 152
288 288 290 293 295 296 296 299 300 300 299 300 303 306 309 312 312 314 319 323 325 334 357 53 80 91 102 116 131 133 133 137 138 135 134 136 137 136
287 287 289 290 293 297 297 299 302 303 301 301 303 304 307 310 310 308 313 324 340 17 81 101 103 106 111 119 127 128 130 134 134 131 133 131 128 128
Height
5662 5657 5653 5648 5643 5637 5631 5625 5620 5617 5617 5612 5604 5596 5588 5583 5577 5572 5567 5562 5557 5553 5548 5544 5539 5536 5534 5533 5533 5533 5535 5536 5538 5540 5543 5546 5550 5554
5649 5645 5640 5635 5630 5624 5618 5612 5605 5599 5597 5595 5589 5582 5575 5569 5563 5557 5552 5547 5543 5537 5532 5527 5523 5519 5517 5515 5515 5516 5517 5519 5521 5523 5526 5529 5533 5537
5636 5632 5627 5621 5617 5611 5605 5599 5592 5585 5580 5580 5574 5567 5561 5555 5550 5544 5538 5533 5529 5523 5518 5513 5509 5505 5502 5500 5499 5499 5500 5502 5504 5506 5509 5513 5517 5522
5624 5619 5614 5609 5603 5598 5592 5586 5580 5573 5566 5564 5561 5554 5548 5542 5537 5531 5526 5521 5516 5511 5505 5501 5496 5491 5488 5485 5484 5483 5484 5486 5488 5490 5494 5498 5502 5506
5611 5606 5601 5596 5591 5585 5579 5574 5567 5561 5554 5549 5546 5542 5536 5530 5525 5520 5514 5509 5504 5498 5493 5489 5484 5479 5475 5472 5470 5469 5469 5471 5473 5476 5479 5483 5487 5492
5599 5594 5588 5583 5578 5573 5567 5562 5555 5549 5543 5538 5534 5529 5524 5518 5512 5507 5504 5498 5493 5487 5482 5477 5472 5468 5463 5460 5458 5457 5456 5457 5460 5463 5466 5470 5475 5480
5587 5582 5577 5572 5566 5561 5555 5550 5544 5538 5532 5527 5522 5518 5512 5507 5501 5496 5492 5488 5483 5477 5472 5467 5462 5458 5454 5450 5447 5446 5446 5447 5449 5452 5456 5460 5465 5469
5576 5572 5567 5561 5556 5550 5544 5539 5533 5527 5521 5516 5512 5507 5501 5496 5491 5486 5481 5477 5474 5470 5464 5460 5454 5450 5446 5442 5440 5439 5439 5440 5441 5444 5447 5452 5457 5462
5565 5561 5556 5551 5545 5540 5535 5529 5523 5516 5511 5506 5501 5496 5491 5486 5481 5477 5472 5467 5463 5459 5454 5451 5447 5443 5439 5436 5434 5434 5434 5434 5436 5438 5441 5446 5451 5456
5555 5550 5545 5541 5535 5530 5525 5520 5514 5508 5502 5497 5492 5487 5482 5477 5472 5467 5463 5459 5456 5452 5447 5444 5441 5438 5434 5432 5431 5430 5430 5431 5432 5434 5438 5442 5447 5451
5545 5540 5535 5530 5525 5520 5515 5511 5506 5501 5495 5489 5484 5479 5474 5469 5463 5459 5455 5452 5450 5447 5442 5438 5435 5433 5431 5429 5428 5426 5427 5428 5430 5432 5435 5439 5443 5447
5535 5530 5525 5520 5515 5509 5505 5501 5497 5492 5487 5483 5478 5473 5468 5462 5457 5453 5449 5445 5442 5440 5437 5433 5430 5428 5428 5427 5425 5424 5425 5426 5427 5430 5433 5436 5439 5444
5525 5521 5515 5510 5505 5500 5496 5492 5487 5484 5480 5476 5471 5467 5462 5458 5453 5449 5444 5440 5437 5435 5432 5429 5427 5425 5423 5424 5423 5423 5423 5425 5426 5428 5431 5434 5437 5440
5515 5511 5506 5501 5496 5492 5488 5484 5480 5476 5473 5469 5466 5462 5458 5454 5450 5445 5441 5437 5434 5431 5428 5425 5424 5422 5421 5421 5421 5422 5422 5423 5425 5427 5430 5432 5435 5438
5506 5502 5497 5493 5488 5484 5481 5477 5473 5470 5467 5464 5461 5457 5453 5450 5446 5442 5438 5435 5431 5428 5426 5423 5422 5421 5420 5419 5419 5420 5421 5422 5424 5426 5428 5431 5433 5436
5498 5494 5490 5485 5482 5478 5475 5471 5468 5465 5462 5459 5456 5453 5450 5447 5443 5440 5436 5433 5430 5428 5425 5423 5421 5419 5418 5418 5418 5419 5420 5421 5423 5425 5427 5429 5432 5434
5490 5486 5483 5479 5476 5473 5469 5466 5463 5460 5458 5455 5453 5450 5447 5444 5441 5437 5435 5432 5429 5427 5425 5422 5420 5419 5418 5417 5417 5418 5419 5421 5423 5425 5427 5429 5431 5434
5482 5480 5476 5473 5470 5467 5465 5462 5459 5456 5454 5452 5449 5447 5444 5441 5438 5436 5433 5431 5429 5427 5424 5422 5421 5419 5418 5418 5418 5418 5419 5421 5423 5425 5428 5430 5432 5433
5475 5473 5470 5468 5465 5462 5460 5457 5455 5453 5450 5448 5446 5444 5441 5438 5436 5434 5432 5430 5428 5426 5425 5423 5421 5419 5419 5419 5419 5420 5420 5422 5424 5426 5428 5430 5432 5433
5469 5466 5464 5462 5460 5458 5455 5453 5451 5449 5447 5445 5443 5441 5438 5436 5434 5432 5431 5430 5428 5427 5425 5423 5421 5420 5420 5420 5421 5422 5422 5423 5425 5427 5429 5430 5432 5433
5462 5460 5459 5457 5455 5453 5451 5449 5447 5446 5444 5442 5440 5438 5436 5434 5433 5431 5430 5429 5428 5426 5425 5424 5422 5421 5421 5422 5423 5423 5424 5425 5426 5427 5429 5431 5432 5434
5457 5455 5454 5452 5450 5449 5447 5445 5443 5442 5440 5439 5437 5435 5434 5433 5431 5430 5429 5428 5427 5426 5425 5424 5423 5423 5423 5423 5424 5425 5425 5426 5427 5429 5430 5432 5434 5435
5451 5450 5449 5447 5446 5445 5443 5442 5440 5439 5437 5436 5434 5433 5432 5431 5430 5429 5428 5427 5426 5426 5426 5425 5425 5425 5424 5424 5425 5426 5427 5428 5429 5431 5432 5434 5436 5438